FW0731 Weather Reports


time (UTC)temp
C
wind
direction
speed
KPH
gust
KPH
rain 1hr
cm
rain 24hr
cm
rain mn
cm
humidity
%
barometer
mb
20260506134820 10 345 0.0 0.0 0.00 0.00 0.00 88 1021.0
20260506134556 10 345 0.0 0.0 0.00 0.00 0.00 88 1020.8
20260506134322 10 345 0.0 0.0 0.00 0.00 0.00 88 1020.8
20260506133814 10 345 0.0 0.0 0.00 0.00 0.00 88 1020.8
20260506133341 10 345 0.0 0.0 0.00 0.00 0.00 88 1020.7
20260506133052 10 345 0.0 0.0 0.00 0.00 0.00 88 1020.7
20260506132821 10 345 0.0 0.0 0.00 0.00 0.00 88 1020.8
20260506132330 10 345 0.0 0.0 0.00 0.00 0.00 87 1020.7
20260506131816 10 345 0.0 0.0 0.00 0.00 0.00 87 1020.7
20260506131601 10 345 0.0 0.0 0.00 0.00 0.00 87 1020.5
20260506131318 10 345 0.0 0.0 0.00 0.00 0.00 87 1020.7
20260506130820 10 345 0.0 0.0 0.00 0.00 0.00 87 1020.6
20260506130346 10 345 0.0 0.0 0.00 0.00 0.00 87 1020.5
20260506130058 10 345 0.0 0.0 0.00 0.00 0.00 87 1020.3
20260506125811 10 345 0.0 0.0 0.00 0.00 0.00 87 1020.5
20260506125313 10 345 0.0 0.0 0.00 0.00 0.00 87 1020.3
20260506124822 10 345 0.0 0.0 0.00 0.00 0.00 87 1020.2
20260506124554 10 345 0.0 0.0 0.00 0.00 0.00 87 1020.1
20260506124341 10 345 0.0 0.0 0.00 0.00 0.00 87 1020.3
20260506123812 10 345 0.0 0.0 0.00 0.00 0.00 87 1020.2
20260506123042 10 345 0.0 0.0 0.00 0.00 0.00 87 1020.3
20260506122816 10 345 0.0 0.0 0.00 0.00 0.00 87 1020.3
20260506122320 10 345 0.0 0.0 0.00 0.00 0.00 87 1020.3
20260506121822 10 345 0.0 0.0 0.00 0.00 0.00 87 1020.3
20260506121529 10 345 0.0 0.0 0.00 0.00 0.00 87 1020.2
20260506121331 10 345 0.0 0.0 0.00 0.00 0.00 87 1020.3
20260506120817 10 345 0.0 0.0 0.00 0.00 0.00 86 1020.2
20260506120319 11 345 0.0 0.0 0.00 0.00 0.00 86 1020.2
20260506120041 10 345 0.0 0.0 0.00 0.00 0.00 87 1020.0
20260506115821 11 345 0.0 0.0 0.00 0.00 0.00 86 1020.2
20260506115325 11 345 0.0 0.0 0.00 0.00 0.00 86 1020.2
20260506114811 11 345 0.0 0.0 0.00 0.00 0.00 86 1020.1
20260506114535 11 345 0.0 0.0 0.00 0.00 0.00 86 1019.9
20260506114320 11 345 0.0 1.6 0.00 0.00 0.00 87 1020.1
20260506113822 11 345 0.0 1.6 0.00 0.00 0.00 87 1019.9
20260506113321 11 345 0.0 1.6 0.00 0.00 0.00 87 1020.1
20260506113029 11 345 0.0 1.6 0.00 0.00 0.00 87 1019.9
20260506112830 11 345 0.0 1.6 0.00 0.00 0.00 87 1019.9
20260506112312 11 345 0.0 1.6 0.00 0.00 0.00 86 1019.9
20260506111814 11 345 0.0 1.6 0.00 0.00 0.00 87 1019.8
20260506111538 11 345 0.0 1.6 0.00 0.00 0.00 87 1019.7
20260506110836 11 322 0.0 3.2 0.00 0.00 0.00 86 1019.8
20260506110318 11 6 0.0 3.2 0.00 0.00 0.00 86 1019.7
20260506105841 11 342 0.0 1.6 0.00 0.00 0.00 86 1019.7
20260506105329 11 337 0.0 1.6 0.00 0.00 0.00 86 1019.5
20260506104810 11 338 0.0 1.6 0.00 0.00 0.00 86 1019.6
20260506104522 11 338 0.0 1.6 0.00 0.00 0.00 85 1019.4
20260506104319 11 338 0.0 0.0 0.00 0.00 0.00 85 1019.5
20260506103821 11 338 0.0 0.0 0.00 0.00 0.00 85 1019.5
20260506103328 11 347 0.0 0.0 0.00 0.00 0.00 85 1019.5
20260506103014 11 349 0.0 0.0 0.00 0.00 0.00 85 1019.2
20260506102810 11 349 0.0 0.0 0.00 0.00 0.00 85 1019.3
20260506102312 11 349 0.0 0.0 0.00 0.00 0.00 85 1019.3
20260506101819 11 349 0.0 0.0 0.00 0.00 0.00 85 1019.4
20260506101603 11 349 0.0 0.0 0.00 0.00 0.00 85 1019.1
20260506101340 11 349 0.0 0.0 0.00 0.00 0.00 85 1019.3
20260506100915 11 349 0.0 0.0 0.00 0.00 0.00 85 1019.2
20260506100312 11 349 0.0 0.0 0.00 0.00 0.00 84 1019.2
20260506100059 11 349 0.0 0.0 0.00 0.00 0.00 84 1019.2
20260506095834 11 349 0.0 0.0 0.00 0.00 0.00 84 1019.3
20260506095321 11 349 0.0 0.0 0.00 0.00 0.00 84 1019.3
20260506094824 11 349 0.0 0.0 0.00 0.00 0.00 84 1019.3
20260506094554 11 349 0.0 0.0 0.00 0.00 0.00 84 1019.2
20260506094326 11 349 0.0 0.0 0.00 0.00 0.00 83 1019.3
20260506093835 11 349 0.0 0.0 0.00 0.00 0.00 83 1019.4
20260506093317 12 349 0.0 0.0 0.00 0.00 0.00 83 1019.3
20260506093103 11 348 0.0 0.0 0.00 0.00 0.00 83 1019.1
20260506092819 12 349 0.0 0.0 0.00 0.00 0.00 83 1019.2
20260506092327 12 349 0.0 0.0 0.00 0.00 0.00 83 1019.2
20260506091828 12 349 0.0 0.0 0.00 0.00 0.00 83 1019.2
20260506091541 12 349 0.0 0.0 0.00 0.00 0.00 83 1019.2
20260506091311 12 349 0.0 0.0 0.00 0.00 0.00 83 1019.3
20260506090820 12 349 0.0 0.0 0.00 0.00 0.00 82 1019.3
20260506090321 12 349 0.0 0.0 0.00 0.00 0.00 83 1019.4
20260506090049 12 349 0.0 0.0 0.00 0.00 0.00 82 1019.3
20260506085851 12 349 0.0 0.0 0.00 0.00 0.00 82 1019.3
20260506085339 12 349 0.0 0.0 0.00 0.00 0.00 83 1019.2
20260506084820 12 349 0.0 1.6 0.00 0.00 0.00 83 1019.3
20260506084531 12 349 0.0 1.6 0.00 0.00 0.00 83 1019.1
20260506084335 12 349 0.0 1.6 0.00 0.00 0.00 82 1019.2
20260506083817 12 350 0.0 0.0 0.00 0.00 0.00 82 1019.1
20260506083327 12 350 0.0 0.0 0.00 0.00 0.00 82 1019.1
20260506083044 12 350 0.0 0.0 0.00 0.00 0.00 82 1018.9
20260506082856 13 350 0.0 0.0 0.00 0.00 0.00 82 1019.1
20260506082325 13 350 0.0 0.0 0.00 0.00 0.00 81 1018.9
20260506081827 13 350 0.0 0.0 0.00 0.00 0.00 81 1019.1
20260506081539 13 350 0.0 0.0 0.00 0.00 0.00 81 1018.9
20260506081335 13 350 0.0 1.6 0.00 0.00 0.00 81 1019.1
20260506080837 13 350 0.0 1.6 0.00 0.00 0.00 81 1019.1
20260506080317 13 350 0.0 0.0 0.00 0.00 0.00 81 1019.0
20260506073346 13 352 0.0 1.6 0.00 0.00 0.00 81 1018.9
20260506073104 13 353 0.0 1.6 0.00 0.00 0.00 81 1018.7
20260506072827 13 350 0.0 1.6 0.00 0.00 0.00 81 1018.9
20260506072309 13 350 0.0 0.0 0.00 0.00 0.00 80 1018.9
20260506071818 13 350 0.0 0.0 0.00 0.00 0.00 80 1018.8
20260506071503 13 350 0.0 0.0 0.00 0.00 0.00 80 1018.7
20260506071320 13 350 0.0 0.0 0.00 0.00 0.00 80 1018.8
20260506070849 13 349 0.0 0.0 0.00 0.00 0.00 80 1018.8
20260506070310 13 349 0.0 0.0 0.00 0.00 0.00 80 1018.6
20260506062324 14 12 0.0 3.2 0.00 0.00 0.00 78 1018.3
20260506061826 15 13 0.0 3.2 0.00 0.00 0.00 78 1018.3
20260506061553 14 18 0.0 1.6 0.00 0.00 0.00 77 1018.1
20260506061356 15 14 0.0 1.6 0.00 0.00 0.00 77 1018.2
20260506060817 15 316 0.0 1.6 0.00 0.00 0.00 77 1018.2
20260506060326 15 13 0.0 3.2 0.00 0.00 0.00 76 1018.2
20260506051317 15 338 0.0 1.6 0.00 0.00 0.00 73 1017.7
20260506050819 15 330 0.0 1.6 0.00 0.00 0.00 73 1017.6
20260506050322 15 330 0.0 1.6 0.00 0.00 0.00 73 1017.7
20260506044812 16 330 0.0 0.0 0.00 0.00 0.00 71 1017.5
20260506044530 15 330 0.0 0.0 0.00 0.00 0.00 71 1017.3
20260506044314 16 330 0.0 0.0 0.00 0.00 0.00 71 1017.5
20260506043823 16 330 0.0 0.0 0.00 0.00 0.00 71 1017.3
20260506043325 16 330 0.0 0.0 0.00 0.00 0.00 70 1017.3
20260506043037 16 330 0.0 0.0 0.00 0.00 0.00 70 1017.1
20260506042834 16 330 0.0 0.0 0.00 0.00 0.00 70 1017.3
20260506042343 16 330 0.0 0.0 0.00 0.00 0.00 69 1017.2
20260506041811 16 330 0.0 0.0 0.00 0.00 0.00 69 1017.1
20260506041522 16 330 0.0 0.0 0.00 0.00 0.00 68 1016.9
20260506041320 16 330 0.0 0.0 0.00 0.00 0.00 68 1017.1
20260506040822 16 330 0.0 0.0 0.00 0.00 0.00 68 1017.1
20260506040331 17 330 0.0 0.0 0.00 0.00 0.00 67 1017.1
20260506040016 16 330 0.0 0.0 0.00 0.00 0.00 67 1016.8
20260506035854 17 330 0.0 0.0 0.00 0.00 0.00 67 1017.0
20260506035339 17 330 0.0 0.0 0.00 0.00 0.00 66 1017.0
20260506034820 17 330 0.0 0.0 0.00 0.00 0.00 66 1016.9
20260506034523 17 330 0.0 1.6 0.00 0.00 0.00 66 1016.7
20260506034330 17 330 0.0 1.6 0.00 0.00 0.00 66 1016.8
20260506033314 17 330 0.0 0.0 0.00 0.00 0.00 65 1016.7
20260506033013 17 330 0.0 0.0 0.00 0.00 0.00 65 1016.5
20260506032823 17 330 0.0 0.0 0.00 0.00 0.00 65 1016.6
20260506032332 17 330 0.0 0.0 0.00 0.00 0.00 64 1016.5
20260506031820 18 330 0.0 0.0 0.00 0.00 0.00 64 1016.5
20260506031512 18 330 0.0 1.6 0.00 0.00 0.00 63 1016.3
20260506031322 18 330 0.0 1.6 0.00 0.00 0.00 63 1016.4
20260506030824 18 330 0.0 3.2 0.00 0.00 0.00 63 1016.3
20260506030333 18 6 1.6 4.8 0.00 0.00 0.00 63 1016.2
20260506030056 18 347 1.6 4.8 0.00 0.00 0.00 62 1016.1
20260506025814 18 354 0.0 3.2 0.00 0.00 0.00 62 1016.2
20260506025316 19 352 0.0 4.8 0.00 0.00 0.00 61 1016.1
20260506024845 19 329 1.6 4.8 0.00 0.00 0.00 61 1016.1
20260506024543 19 289 0.0 4.8 0.00 0.00 0.00 60 1015.8
20260506024326 20 357 1.6 3.2 0.00 0.00 0.00 60 1016.0
20260506023835 20 350 1.6 3.2 0.00 0.00 0.00 59 1016.0
20260506023317 20 303 0.0 4.8 0.00 0.00 0.00 58 1015.9
20260506023051 20 349 0.0 4.8 0.00 0.00 0.00 58 1015.6
20260506022819 20 336 1.6 8.0 0.00 0.00 0.00 58 1015.9
20260506022329 20 340 1.6 8.0 0.00 0.00 0.00 57 1015.8
20260506021810 20 354 1.6 9.7 0.00 0.00 0.00 56 1015.7
20260506021559 20 6 1.6 9.7 0.00 0.00 0.00 56 1015.5
20260506021312 21 6 1.6 11.3 0.00 0.00 0.00 56 1015.7
20260506020841 21 298 3.2 11.3 0.00 0.00 0.00 55 1015.7
20260506020309 21 3 1.6 9.7 0.00 0.00 0.00 55 1015.5
20260506020052 21 353 1.6 11.3 0.00 0.00 0.00 54 1015.4
20260506015811 21 326 4.8 11.3 0.00 0.00 0.00 54 1015.6
20260506015313 22 321 4.8 11.3 0.00 0.00 0.00 53 1015.6
20260506014822 22 222 1.6 9.7 0.00 0.00 0.00 54 1015.5
20260506014600 22 329 1.6 9.7 0.00 0.00 0.00 54 1015.2
20260506014324 22 30 3.2 9.7 0.00 0.00 0.00 53 1015.4
20260506013826 22 343 3.2 11.3 0.00 0.00 0.00 53 1015.5
20260506013335 22 34 6.4 9.7 0.00 0.00 0.00 52 1015.3
20260506013003 22 356 0.0 9.7 0.00 0.00 0.00 53 1015.1
20260506012814 22 5 1.6 9.7 0.00 0.00 0.00 53 1015.3
20260506012343 22 18 3.2 9.7 0.00 0.00 0.00 52 1015.3
20260506011823 22 20 1.6 11.3 0.00 0.00 0.00 53 1015.3
20260506011534 21 37 1.6 11.3 0.00 0.00 0.00 54 1015.1
20260506011332 22 30 3.2 11.3 0.00 0.00 0.00 53 1015.3
20260506010814 22 349 3.2 9.7 0.00 0.00 0.00 53 1015.3
20260506010336 21 302 1.6 9.7 0.00 0.00 0.00 53 1015.2
20260506010024 21 357 1.6 9.7 0.00 0.00 0.00 54 1015.1
20260506005824 21 356 1.6 6.4 0.00 0.00 0.00 53 1015.2
20260506005326 21 342 0.0 8.0 0.00 0.00 0.00 53 1015.3
20260506004828 21 54 3.2 8.0 0.00 0.00 0.00 53 1015.2
20260506004536 21 344 0.0 6.4 0.00 0.00 0.00 54 1015.0
20260506004310 21 342 0.0 6.4 0.00 0.00 0.00 54 1015.2
20260506003819 21 335 1.6 6.4 0.00 0.00 0.00 54 1015.2
20260506003321 21 354 1.6 6.4 0.00 0.00 0.00 53 1015.1
20260506003034 21 319 1.6 6.4 0.00 0.00 0.00 53 1015.1
20260506002830 21 13 1.6 4.8 0.00 0.00 0.00 53 1015.2
20260506002312 21 331 1.6 6.4 0.00 0.00 0.00 53 1015.2
20260506001821 21 326 1.6 8.0 0.00 0.00 0.00 53 1015.2
20260506001608 21 352 1.6 9.7 0.00 0.00 0.00 53 1015.0
20260506001350 21 352 3.2 9.7 0.00 0.00 0.00 52 1015.1
20260506000812 22 323 1.6 8.0 0.00 0.00 0.00 51 1015.2
20260506000313 22 295 1.6 8.0 0.00 0.00 0.00 51 1015.2
20260506000044 22 326 0.0 8.0 0.00 0.00 0.00 50 1014.9
20260505235822 23 13 1.6 8.0 0.00 0.00 0.00 49 1015.1
20260505235344 23 311 1.6 8.0 0.00 0.00 0.00 48 1015.2
20260505234810 24 15 3.2 8.0 0.00 0.00 0.00 48 1015.2
20260505234549 24 28 1.6 8.0 0.00 0.00 0.00 48 1015.1
20260505234312 24 20 1.6 4.8 0.00 0.00 0.00 49 1015.2
20260505233821 23 324 1.6 6.4 0.00 0.00 0.00 50 1015.3
20260505233330 23 41 0.0 11.3 0.00 0.00 0.00 53 1015.3
20260505233010 22 300 1.6 12.9 0.00 0.00 0.00 52 1015.3
20260505232812 22 359 1.6 12.9 0.00 0.00 0.00 52 1015.4
20260505232313 22 302 4.8 12.9 0.00 0.00 0.00 52 1015.5
20260505231816 22 323 3.2 9.7 0.00 0.00 0.00 52 1015.6
20260505231519 22 324 0.0 11.3 0.00 0.00 0.00 52 1015.5
20260505231324 23 325 3.2 11.3 0.00 0.00 0.00 52 1015.7
20260505230826 23 346 4.8 11.3 0.00 0.00 0.00 51 1015.6
20260505230328 23 349 0.0 8.0 0.00 0.00 0.00 53 1015.6
20260505230033 22 346 0.0 9.7 0.00 0.00 0.00 52 1015.5
20260505225810 23 334 3.2 9.7 0.00 0.00 0.00 52 1015.6
20260505225339 23 7 3.2 9.7 0.00 0.00 0.00 53 1015.6
20260505224827 22 323 1.6 6.4 0.00 0.00 0.00 53 1015.6
20260505224602 22 254 0.0 6.4 0.00 0.00 0.00 54 1015.5
20260505224315 22 355 0.0 6.4 0.00 0.00 0.00 55 1015.7
20260505223823 22 6 0.0 6.4 0.00 0.00 0.00 55 1015.6
20260505223325 22 342 0.0 6.4 0.00 0.00 0.00 55 1015.8
20260505223056 22 122 1.6 6.4 0.00 0.00 0.00 54 1015.6
20260505222827 22 228 1.6 4.8 0.00 0.00 0.00 54 1015.8
20260505222336 22 344 1.6 4.8 0.00 0.00 0.00 54 1015.9
20260505221817 22 37 0.0 8.0 0.00 0.00 0.00 55 1015.9
20260505221539 22 250 0.0 8.0 0.00 0.00 0.00 56 1015.8
20260505221319 22 250 0.0 9.7 0.00 0.00 0.00 56 1016.0
20260505220829 22 354 0.0 9.7 0.00 0.00 0.00 55 1016.0
20260505220310 22 302 1.6 9.7 0.00 0.00 0.00 54 1016.1
20260505220044 21 318 1.6 9.7 0.00 0.00 0.00 57 1016.1
20260505215819 22 48 3.2 9.7 0.00 0.00 0.00 56 1016.2
20260505215320 22 26 3.2 9.7 0.00 0.00 0.00 55 1016.2
20260505214850 22 310 1.6 4.8 0.00 0.00 0.00 57 1016.2
20260505214532 21 105 0.0 3.2 0.00 0.00 0.00 57 1016.2
20260505214317 21 106 0.0 3.2 0.00 0.00 0.00 57 1016.3
20260505213826 21 340 0.0 3.2 0.00 0.00 0.00 58 1016.3
20260505213335 21 57 0.0 6.4 0.00 0.00 0.00 58 1016.3
20260505213011 21 176 1.6 11.3 0.00 0.00 0.00 58 1016.3
20260505212817 21 212 1.6 11.3 0.00 0.00 0.00 58 1016.4
20260505212318 21 239 1.6 8.0 0.00 0.00 0.00 57 1016.6
20260505211834 21 27 1.6 8.0 0.00 0.00 0.00 58 1016.6
20260505211505 21 359 1.6 8.0 0.00 0.00 0.00 58 1016.4
20260505211316 21 16 0.0 4.8 0.00 0.00 0.00 60 1016.6
20260505210818 21 340 0.0 9.7 0.00 0.00 0.00 60 1016.7
20260505210348 20 332 1.6 9.7 0.00 0.00 0.00 61 1016.7
20260505210106 20 282 1.6 9.7 0.00 0.00 0.00 60 1016.5
20260505205809 20 221 1.6 6.4 0.00 0.00 0.00 61 1016.6
20260505205311 20 317 1.6 4.8 0.00 0.00 0.00 59 1016.7
20260505204841 20 272 0.0 6.4 0.00 0.00 0.00 60 1016.7
20260505204543 20 334 1.6 8.0 0.00 0.00 0.00 60 1016.6
20260505204349 20 195 1.6 8.0 0.00 0.00 0.00 60 1016.7
20260505203831 20 18 3.2 8.0 0.00 0.00 0.00 59 1016.7
20260505203312 19 27 0.0 8.0 0.00 0.00 0.00 63 1016.7
20260505203010 18 342 1.6 9.7 0.00 0.00 0.00 61 1016.6
20260505202821 19 330 1.6 9.7 0.00 0.00 0.00 61 1016.7
20260505202323 19 286 1.6 9.7 0.00 0.00 0.00 63 1016.7
20260505201833 19 36 3.2 8.0 0.00 0.00 0.00 62 1016.6
20260505201607 18 330 0.0 9.7 0.00 0.00 0.00 63 1016.6
20260505201313 18 360 1.6 11.3 0.00 0.00 0.00 64 1016.7
20260505200812 18 326 4.8 11.3 0.00 0.00 0.00 63 1016.7
20260505200321 18 303 4.8 11.3 0.00 0.00 0.00 64 1016.6
20260505200006 18 336 3.2 11.3 0.00 0.00 0.00 64 1016.6
20260505195823 18 19 3.2 11.3 0.00 0.00 0.00 65 1016.7
20260505195325 18 34 1.6 9.7 0.00 0.00 0.00 66 1016.7
20260505194834 18 59 1.6 11.3 0.00 0.00 0.00 65 1016.7
20260505194510 17 32 1.6 14.5 0.00 0.00 0.00 65 1016.6
20260505194315 18 21 3.2 14.5 0.00 0.00 0.00 67 1016.8
20260505193818 17 287 4.8 14.5 0.00 0.00 0.00 66 1016.8
20260505193320 17 338 3.2 11.3 0.00 0.00 0.00 68 1016.8
20260505193037 17 328 0.0 9.7 0.00 0.00 0.00 68 1016.7
20260505192835 17 339 0.0 11.3 0.00 0.00 0.00 68 1016.8
20260505192317 17 347 3.2 11.3 0.00 0.00 0.00 67 1016.8
20260505191819 17 37 3.2 8.0 0.00 0.00 0.00 68 1016.8
20260505191549 16 282 1.6 8.0 0.00 0.00 0.00 68 1016.8
20260505191336 17 17 3.2 11.3 0.00 0.00 0.00 68 1016.9
20260505190817 17 352 3.2 12.9 0.00 0.00 0.00 68 1016.9
20260505190318 17 316 3.2 12.9 0.00 0.00 0.00 68 1016.9
20260505190032 16 349 4.8 12.9 0.00 0.00 0.00 68 1016.8
20260505185847 17 22 4.8 12.9 0.00 0.00 0.00 68 1016.9
20260505185329 17 304 3.2 11.3 0.00 0.00 0.00 68 1016.9
20260505184811 16 18 3.2 11.3 0.00 0.00 0.00 69 1016.9
20260505184518 16 208 3.2 11.3 0.00 0.00 0.00 69 1016.7
20260505184320 16 354 4.8 11.3 0.00 0.00 0.00 69 1016.8
20260505183823 16 331 3.2 9.7 0.00 0.00 0.00 69 1016.8
20260505183325 16 312 1.6 9.7 0.00 0.00 0.00 70 1016.7
20260505183036 16 35 3.2 9.7 0.00 0.00 0.00 70 1016.7
20260505182835 16 331 4.8 9.7 0.00 0.00 0.00 69 1016.8
20260505182316 16 341 3.2 9.7 0.00 0.00 0.00 70 1016.8
20260505181818 16 7 4.8 9.7 0.00 0.00 0.00 70 1016.8
20260505181531 16 334 1.6 8.0 0.00 0.00 0.00 72 1016.6
20260505181328 16 312 1.6 8.0 0.00 0.00 0.00 72 1016.7
20260505180816 16 7 1.6 9.7 0.00 0.00 0.00 73 1016.7
20260505180318 15 349 1.6 11.3 0.00 0.00 0.00 73 1016.7
20260505180049 15 289 4.8 11.3 0.00 0.00 0.00 72 1016.5
20260505175826 15 38 3.2 16.1 0.00 0.00 0.00 72 1016.7
20260505175329 15 349 3.2 16.1 0.00 0.00 0.00 72 1016.6
20260505174810 15 346 3.2 8.0 0.00 0.00 0.00 72 1016.6
20260505174538 15 17 1.6 8.0 0.00 0.00 0.00 72 1016.6
20260505174319 15 356 3.2 9.7 0.00 0.00 0.00 72 1016.6
20260505173821 15 7 3.2 11.3 0.00 0.00 0.00 72 1016.6
20260505173351 15 30 4.8 11.3 0.00 0.00 0.00 72 1016.5
20260505173102 15 1 3.2 12.9 0.00 0.00 0.00 72 1016.4
20260505172833 15 70 4.8 12.9 0.00 0.00 0.00 72 1016.5
20260505172327 15 294 3.2 12.9 0.00 0.00 0.00 71 1016.4
20260505171850 15 18 1.6 9.7 0.00 0.00 0.00 72 1016.5
20260505171540 15 30 1.6 9.7 0.00 0.00 0.00 71 1016.3
20260505171338 15 10 3.2 11.3 0.00 0.00 0.00 71 1016.4
20260505170819 15 4 1.6 14.5 0.00 0.00 0.00 71 1016.4
20260505170321 15 350 4.8 16.1 0.00 0.00 0.00 71 1016.3
20260505170022 15 44 6.4 16.1 0.00 0.00 0.00 71 1016.2
20260505165830 15 32 8.0 16.1 0.00 0.00 0.00 72 1016.3
20260505165313 15 52 3.2 12.9 0.00 0.00 0.00 72 1016.4
20260505164815 15 44 4.8 12.9 0.00 0.00 0.00 73 1016.3
20260505164536 15 13 1.6 11.3 0.00 0.00 0.00 74 1016.2
20260505164405 15 349 3.2 12.9 0.00 0.00 0.00 73 1016.3
20260505163848 15 13 3.2 14.5 0.00 0.00 0.00 75 1016.3
20260505163357 15 32 4.8 11.3 0.00 0.00 0.00 75 1016.3
20260505163021 14 298 4.8 11.3 0.00 0.00 0.00 76 1016.2
20260505162825 15 40 4.8 9.7 0.00 0.00 0.00 77 1016.3
20260505162333 14 30 3.2 11.3 0.00 0.00 0.00 78 1016.2
20260505161815 14 23 3.2 11.3 0.00 0.00 0.00 79 1016.2
20260505161551 13 338 3.2 11.3 0.00 0.00 0.00 79 1016.1
20260505161317 14 355 3.2 11.3 0.00 0.00 0.00 80 1016.1
20260505160819 13 355 4.8 12.9 0.00 0.00 0.00 81 1016.0
20260505160328 13 344 4.8 12.9 0.00 0.00 0.00 81 1016.0
20260505153315 13 356 3.2 8.0 0.00 0.00 0.00 82 1015.9
20260505153107 13 13 3.2 11.3 0.00 0.00 0.00 82 1015.7
20260505152817 13 14 4.8 11.3 0.00 0.00 0.00 82 1015.9
20260505152319 13 335 3.2 11.3 0.00 0.00 0.00 82 1015.9
20260505151849 13 310 3.2 8.0 0.00 0.00 0.00 82 1015.8
20260505151542 13 5 1.6 8.0 0.00 0.00 0.00 82 1015.6
20260505151338 13 20 1.6 6.4 0.00 0.00 0.00 82 1015.7
20260505150839 13 331 1.6 9.7 0.00 0.00 0.00 83 1015.7
20260505150327 13 295 3.2 9.7 0.00 0.00 0.00 82 1015.7
20260505140316 13 321 0.0 8.0 0.00 0.00 0.00 83 1015.2